Regional Weather Roundup
Issued by NWS

Home | Current Version | Previous Version | Graphics & Text | Print | Product List | Glossary On
Versions: 1 2 3 4 5 6 7 8 9 10 11 12 13 14 15 16 17 18 19 20 21 22 23 24 25 26 27 28 29 30 31 32 33 34 35 36 37 38 39 40 41 42 43 44 45 46 47 48 49 50
000
ASUS45 KBOI 271910
RWRID
WEATHER ROUNDUP FOR IDAHO
NATIONAL WEATHER SERVICE BOISE ID
100 PM MDT SUN JUL 27 2014

NOTE: "FAIR" INDICATES FEW OR NO CLOUDS BELOW 12000 FEET
WITH NO SIGNIFICANT WEATHER AND/OR OBSTRUCTIONS TO VISIBILITY

IDZ012-014-272000-
SOUTHWEST IDAHO


CITY           SKY/WX    TMP DP  RH WIND       PRES   REMARKS
BOISE          SUNNY     89  38  16 W6        30.11F
CALDWELL       SUNNY     84  45  24 CALM      30.13F
MOUNTAIN HOME  SUNNY     90  31  12 VRB6      30.11F
$$

IDZ016-017-272000-
SOUTHCENTRAL IDAHO


CITY           SKY/WX    TMP DP  RH WIND       PRES   REMARKS
BURLEY         SUNNY     89  36  15 NE10      30.17F
JEROME         SUNNY     89  36  15 VRB5      30.18F
TWIN FALLS     SUNNY     89  36  15 NE9       30.18F
$$

IDZ019>023-272000-
SOUTHEAST IDAHO


CITY           SKY/WX    TMP DP  RH WIND       PRES   REMARKS
IDAHO FALLS    SUNNY     87  34  15 N6        30.25F
POCATELLO      SUNNY     90  38  16 N8        30.22F
REXBURG        SUNNY     84  32  15 CALM      30.27F
$$

IDZ006-010-011-018-031-032-272000-
CENTRAL IDAHO MOUNTAINS


CITY           SKY/WX    TMP DP  RH WIND       PRES   REMARKS
MCCALL         SUNNY     83  32  16 S6        30.26S
HAILEY         MOSUNNY   82  45  26 SE7       30.29F
STANLEY          N/A     81  24  12 N6        30.38F
SALMON         SUNNY     81  39  22 CALM      30.20F
CHALLIS        SUNNY     82  27  13 E3        30.29F
$$

IDZ002-004-006-007-026-272000-
NORTHERN IDAHO


CITY           SKY/WX    TMP DP  RH WIND       PRES   REMARKS
LEWISTON       SUNNY     87  40  19 VRB3      30.09F
LOWELL           N/A     83  45  26 N3        30.10F
COEUR D`ALENE  SUNNY     81  50  34 E9        30.17F
MULLAN PASS    SUNNY     68  38  33 VRB3      30.38S
$$



USA.gov is the U.S. government's official web portal to all federal, state and local government web resources and services.